DELTA 1 DEB

Satellite information

Favourite Embed

Satellite Type and Status

DEBRISIN ORBIT

Key statistics

Satellite DELTA 1 DEB at a glance.

Uptime

18489

Days in orbit

Revolutions

≈ 14.5

Per day

Orbit

SSO

Sun Synchronous Orbit

Inclination

98.0

Latest

Satellite identification and parameters

Extended collection of information and parameters for DELTA 1 DEB.

Object identification

Identified? True

Debris? True

Object name: DELTA 1 DEB

International designator: 1975-004M

Object number (NORAD): 8685

Object ID (CCSDS): 8685

Country: UNITED STATES OF AMERICA (US)

Current information (Y/N): Y

RCS size: MEDIUM

Orbital parameters

Period: 99.12 minutes

Inclination: 97.9825 deg

SMA: 7094.711 km

Apoapsis: 750.638 km

Periapsis: 682.514 km

RAAN: 335.3963 deg

Eccentricy: 0.00480106

Argument of periapsis: 94.4616 deg

Mean anomaly: 266.2068 deg

Mean motion: 14.52782919 rev/day

Mean motion (dot): 0.00000956 rev/day2

B* drag term: 0.00023979182 1/REarth

Two-line elements (TLE)

Creation date: Sept. 4, 2025, 10:13 a.m.

Reference frame: TEME

Reference center: EARTH

Epoch: Sept. 4, 2025, 4:37 a.m. UTC

TLE line 0: 0 DELTA 1 DEB

TLE line 1: 1 08685U 75004M 25247.19264502 .00000956 00000-0 23979-3 0 9995

TLE line 2: 2 08685 97.9825 335.3963 0048011 94.4616 266.2068 14.52782919667552

Live tracking on map

Real-time ground track for satellite DELTA 1 DEB.

In-orbit conjunctions

A list of the most updated potential collisions computed for object DELTA 1 DEB.

Target Orbit TCA Probability of collision Miss distance Type
SCOUT A DEB SSO 2025-05-21 01:51:12 0.0002506455 92.0 (m) DEBRIS

Associated space launch

Earth observation satellite

DELTA 1 DEB was lifted into orbit during the mission ‘Delta 2910 | Landsat 2’, on board a Delta 2910 space rocket.

The launch took place on Jan. 22, 1975, 5:55 p.m. from Space Launch Complex 2W.

For more information about the launch, click the button.

Launch to space Delta 2910 | Landsat 2
Delta 2910 | Landsat 2

Agency: N/A

Status: Launch Successful

Launch date: Jan. 22, 1975, 5:55 p.m. UTC

Rocket: Delta 2910

Launch pad: Space Launch Complex 2W

Location: Vandenberg SFB, CA, USA

...

Latest news about this satellite

There are no fresh news available about this satellite. Check back as we update our databases every day.


Newsletter sign-up

Weekly statistics, charts and insights to help you stay on top of the space industry.